Cocoa Beach, FL

2:54 AM EST on December 11, 2017 (GMT -0500)
Patrick Air Force Base

Weather History for KCOF - December, 2013

Change the Weather History Date:

Saturday, December 28, 2013

  Actual Average Record
Temperature  
Mean Temperature 72 °F -  
Max Temperature 75 °F 67 °F 81 °F (2015)
Min Temperature 68 °F 54 °F 35 °F (2010)
Cooling Degree Days 6    
Growing Degree Days 22 (Base 50)    
Moisture  
Dew Point 69 °F    
Average Humidity 93    
Maximum Humidity 100    
Minimum Humidity 81    
Precipitation  
Precipitation 0.33 in - - ()
Sea Level Pressure  
Sea Level Pressure 30.16 in    
Wind  
Wind Speed 10 mph (East)    
Max Wind Speed 18 mph    
Max Gust Speed 23 mph    
Visibility 9 miles    
Events Rain    
Averages and records for this station are not official NWS values.
T = Trace of Precipitation, MM = Missing Value Source: NWS Daily Summary

Daily Weather History Graph

Daily Weather History Graph

Search for Another Location

Airport or City:

Trip Planner

Search our weather history database for the weather conditions in past years. The results will help you decide how hot, cold, wet, or windy it might be!

Date:

Astronomy

Dec. 28, 2013 Rise Set
Actual Time 7:13 AM EST 5:35 PM EST
Civil Twilight 6:47 AM EST 6:01 PM EST
Nautical Twilight 6:18 AM EST 6:30 PM EST
Astronomical Twilight 5:49 AM EST 6:59 PM EST
Moon 2:59 AM EST (12/28) 2:15 PM EST (12/28)
Length of Visible Light 11h 13m
Length of Day
10h 21m
Waning Crescent, 19% of the Moon is Illuminated
Dec 28
Waning Crescent
Jan 1
New
Jan 7
First Quarter
Jan 15
Full
Jan 24
Last Quarter

Hourly Weather History & Observations

Time (EST) Temp. Dew Point Humidity Pressure Visibility Wind Dir Wind Speed Gust Speed Precip Events Conditions
12:58 AM 68.7 °F 68.5 °F 99% 30.22 in 10.0 mi NNE 10.4 mph - N/A   Scattered Clouds
1:48 AM 69.8 °F 68.0 °F 94% 30.20 in 10.0 mi NNE 11.5 mph - N/A   Mostly Cloudy
1:53 AM 69.8 °F 68.0 °F 94% 30.21 in 10.0 mi NNE 10.4 mph - N/A   Mostly Cloudy
1:58 AM 69.8 °F 68.0 °F 94% 30.22 in 10.0 mi NNE 9.2 mph - N/A   Scattered Clouds
2:06 AM 69.8 °F 68.0 °F 94% 30.20 in 10.0 mi NNE 9.2 mph - N/A   Light Drizzle
2:16 AM 69.8 °F 68.0 °F 94% 30.20 in 10.0 mi NNE 10.4 mph - N/A   Scattered Clouds
2:26 AM 69.8 °F 68.0 °F 94% 30.19 in 10.0 mi NE 10.4 mph - N/A   Mostly Cloudy
2:31 AM 69.8 °F 68.0 °F 94% 30.19 in 10.0 mi NE 10.4 mph - N/A   Mostly Cloudy
2:58 AM 69.3 °F 68.7 °F 98% 30.19 in 10.0 mi NE 12.7 mph - 0.00 in   Partly Cloudy
3:20 AM 69.8 °F 69.8 °F 100% 30.18 in 10.0 mi NE 13.8 mph - N/A   Light Drizzle
3:34 AM 69.8 °F 68.0 °F 94% 30.18 in 10.0 mi NE 13.8 mph - N/A   Scattered Clouds
3:58 AM 68.9 °F 68.5 °F 99% 30.19 in 10.0 mi NE 12.7 mph - 0.00 in   Mostly Cloudy
4:03 AM 69.8 °F 68.0 °F 94% 30.18 in 10.0 mi NE 13.8 mph - N/A   Mostly Cloudy
4:28 AM 69.8 °F 68.0 °F 94% 30.18 in 9.0 mi ENE 10.4 mph - N/A   Light Drizzle
4:33 AM 69.8 °F 68.0 °F 94% 30.18 in 7.0 mi ENE 10.4 mph - N/A   Light Drizzle
4:53 AM 69.8 °F 68.0 °F 94% 30.17 in 9.0 mi NE 8.1 mph - N/A   Light Drizzle
4:54 AM 69.8 °F 68.0 °F 94% 30.17 in 8.0 mi NE 8.1 mph - N/A   Overcast
4:55 AM 69.8 °F 68.0 °F 94% 30.17 in 8.0 mi NE 9.2 mph - N/A   Light Drizzle
4:58 AM 69.8 °F 68.0 °F 94% 30.19 in 7.0 mi NE 9.2 mph - 0.01 in Rain Light Rain
5:03 AM 69.8 °F 68.0 °F 94% 30.17 in 5.0 mi NE 2.3 mph - N/A Rain Heavy Rain
5:13 AM 69.8 °F 68.0 °F 94% 30.17 in 5.0 mi Calm Calm - N/A Rain Light Rain
5:18 AM 69.8 °F 68.0 °F 94% 30.17 in 4.0 mi ESE 4.6 mph - N/A Rain Heavy Rain
5:23 AM 69.8 °F 68.0 °F 94% 30.17 in 5.0 mi Variable 2.3 mph - N/A Rain Rain
5:28 AM 69.8 °F 69.8 °F 100% 30.17 in 8.0 mi East 2.3 mph - N/A Rain Light Rain
5:33 AM 69.8 °F 68.0 °F 94% 30.17 in 10.0 mi ENE 2.3 mph - N/A Rain Rain
5:38 AM 69.8 °F 68.0 °F 94% 30.17 in 10.0 mi Variable 5.8 mph - N/A Rain Light Rain
5:43 AM 69.8 °F 68.0 °F 94% 30.17 in 10.0 mi ESE 5.8 mph - N/A Rain Light Rain
5:53 AM 68.0 °F 68.0 °F 100% 30.17 in 8.0 mi ESE 9.2 mph - N/A Rain Light Rain
5:58 AM 68.7 °F 68.0 °F 98% 30.19 in 7.0 mi ESE 9.2 mph - 0.30 in Rain Light Rain
6:03 AM 68.0 °F 68.0 °F 100% 30.17 in 8.0 mi ESE 9.2 mph - N/A Rain Light Rain
6:08 AM 69.8 °F 68.0 °F 94% 30.17 in 10.0 mi SE 6.9 mph - N/A   Light Drizzle
6:09 AM 69.8 °F 68.0 °F 94% 30.17 in 10.0 mi SE 8.1 mph - N/A   Mostly Cloudy
6:58 AM 71.6 °F 68.7 °F 91% 30.19 in 10.0 mi East 12.7 mph - 0.01 in   Mostly Cloudy
7:58 AM 72.1 °F 68.5 °F 88% 30.21 in 10.0 mi East 10.4 mph - N/A   Clear
8:58 AM 74.1 °F 68.7 °F 83% 30.22 in 10.0 mi East 12.7 mph - N/A   Clear
9:58 AM 75.4 °F 69.3 °F 81% 30.24 in 10.0 mi East 11.5 mph - N/A   Clear
10:58 AM 75.4 °F 69.4 °F 82% 30.22 in 10.0 mi East 12.7 mph - N/A   Partly Cloudy
11:58 AM 74.8 °F 69.4 °F 83% 30.19 in 10.0 mi East 15.0 mph - N/A   Scattered Clouds
12:48 PM 75.2 °F 69.8 °F 83% 30.14 in 10.0 mi SE 13.8 mph - N/A   Mostly Cloudy
12:51 PM 73.4 °F 69.8 °F 88% 30.14 in 10.0 mi SE 13.8 mph 20.7 mph N/A   Light Drizzle
12:58 PM 73.2 °F 70.9 °F 92% 30.16 in 10.0 mi SE 16.1 mph 23.0 mph 0.00 in   Light Drizzle
1:00 PM 71.6 °F 69.8 °F 94% 30.14 in 10.0 mi SE 17.3 mph 23.0 mph N/A   Mostly Cloudy
1:02 PM 71.6 °F 69.8 °F 94% 30.13 in 10.0 mi SE 18.4 mph 23.0 mph N/A   Light Drizzle
1:25 PM 71.6 °F 69.8 °F 94% 30.13 in 10.0 mi ESE 13.8 mph - N/A   Mostly Cloudy
1:45 PM 73.4 °F 69.8 °F 88% 30.11 in 10.0 mi East 13.8 mph - N/A   Mostly Cloudy
1:58 PM 73.2 °F 70.3 °F 91% 30.12 in 10.0 mi East 13.8 mph - 0.01 in   Scattered Clouds
2:58 PM 74.5 °F 70.2 °F 86% 30.11 in 10.0 mi ESE 11.5 mph - N/A   Scattered Clouds
3:58 PM 73.9 °F 68.7 °F 84% 30.12 in 10.0 mi SE 10.4 mph - N/A   Clear
4:58 PM 73.2 °F 69.4 °F 88% 30.12 in 10.0 mi SE 9.2 mph - N/A   Mostly Cloudy
5:21 PM 73.4 °F 69.8 °F 88% 30.10 in 10.0 mi SE 8.1 mph - N/A   Drizzle
5:39 PM 71.6 °F 69.8 °F 94% 30.10 in 10.0 mi ESE 10.4 mph - N/A   Mostly Cloudy
5:43 PM 71.6 °F 69.8 °F 94% 30.10 in 10.0 mi ESE 12.7 mph - N/A   Light Drizzle
5:48 PM 71.6 °F 69.8 °F 94% 30.10 in 10.0 mi ESE 12.7 mph - N/A   Light Drizzle
5:58 PM 72.1 °F 69.6 °F 92% 30.12 in 10.0 mi ESE 9.2 mph - 0.00 in   Light Drizzle
5:59 PM 71.6 °F 69.8 °F 94% 30.09 in 10.0 mi ESE 10.4 mph - N/A   Mostly Cloudy
6:58 PM 71.6 °F 69.6 °F 93% 30.11 in 10.0 mi ESE 11.5 mph - 0.00 in   Clear
7:58 PM 71.4 °F 70.0 °F 95% 30.11 in 10.0 mi SE 9.2 mph - N/A   Clear
8:58 PM 72.0 °F 69.6 °F 92% 30.09 in 10.0 mi ESE 13.8 mph - N/A   Scattered Clouds
9:58 PM 72.0 °F 69.3 °F 91% 30.06 in 10.0 mi ESE 15.0 mph - N/A   Clear
10:58 PM 72.3 °F 69.6 °F 91% 30.09 in 10.0 mi SE 11.5 mph - N/A   Clear
11:58 PM 72.0 °F 69.8 °F 93% 30.08 in 10.0 mi SE 10.4 mph - N/A   Partly Cloudy